Aérodrome :
LOGIN :

S'inscrire | Disclaimer

   EN    FR    IT 

 










Légende :    VFR   VFR Marginal   IFR   IFR Intensif   IFR Très Intensif
Visi : 
Plafond : 
>= 8 km
>= 3000ft
5 à 8 km
1000 à 3000 ft
1500m à 5 km
500 à 1000 ft
800 à 1500m
200 à 500 ft
< 800m
< 200 ft
Symboles :   Orages  Brouillard  Fortes neiges  Fortes précipitations  Vent > 20 kt
SIGMETs :   Divers  Orages  Givrage  Turbulence  Onde Orograph.  Cendres Volcan.







- Altitude de l'aérodrome : 885 ft
- Code IATA : BAS
- Voir les cartes d'approche


LFSB - Bale-Mulhouse

DERNIER METAR :
  • 261700Z 29010KT CAVOK 16/M02 Q1018 NOSIG

METARs EXPIRÉS :
  • 261630Z 29010KT 260V330 CAVOK 16/M01 Q1019 NOSIG
  • 261600Z 28010KT 250V330 CAVOK 16/M00 Q1019 NOSIG
  • 261530Z 28012KT 250V310 CAVOK 17/00 Q1019 NOSIG
  • 261500Z 31012KT 9999 FEW055 BKN280 17/01 Q1019 NOSIG
  • 261430Z 28014KT 250V320 9999 FEW055 SCT280 17/01 Q1019 NOSIG
  • 261400Z 28012KT 240V320 9999 FEW055 SCT080 17/03 Q1019 NOSIG

TAF TAF LFSB
Valide du 26 à 12h jusqu'au 27 à 12h UTC


261102Z 2612/2712 28013KT 9999 FEW050 SCT075
BECMG 2620/2622 VRB03KT
BECMG 2708/2710 11010KT
Météo : +33 3 89 90 31 11
Pas de NOTAMs connus pour ce terrain.



MET'MAP, la Météo Aéronautique d'un coup d'oeil ! - Copyright ORBIFLY Décembre 2007 - Disclaimer

ORBIFLY MET'MAP TEAM :

Programmation & Développement : Alexandra Zaïnal
Conception & Développement : Baudouin d'Aumeries
Co-Programmation & Développement : Marc-Olivier Méhu
Soutien technique & logistique : Manuel Goepfert

Contact : metmap@orbifly.com




SOURCES & CREDITS :

   NOAA